Location: L�gaud
(45.7115°N, 1.7775°E)
Time: 07:10:06
(UTC+00:00)

CSL-04 DEB - Pass Details

Date: 03 March 2021
Orbit: 545 x 627 km, 98.8° (Epoch: 10 April)

Event Time Altitude Azimuth Distance (km) Brightness Sun altitude
Rises 18:13:23 0° 13° (NNE) 2,730 7.7 -6.2°
Reaches altitude 10° 18:15:30 10° 13° (NNE) 1,837 6.8 -6.5°
Maximum altitude 18:19:28 85° 287° (WNW) 565 4.4 -7.2°
Drops below altitude 10° 18:23:28 10° 198° (SSW) 1,855 7.3 -7.9°
Sets 18:25:37 0° 197° (SSW) 2,759 8.1 -8.3°
